Year,Month,Day,Hour,Minute,Value (Times are PST for temperature in C)
2016,08,18,00,00,14.90
2016,08,18,00,01,14.80
2016,08,18,00,02,14.80
2016,08,18,00,03,14.80
2016,08,18,00,04,14.80
2016,08,18,00,05,14.70
2016,08,18,00,06,14.70
2016,08,18,00,07,14.60
2016,08,18,00,08,14.60
2016,08,18,00,09,14.60
2016,08,18,00,10,14.60
2016,08,18,00,11,14.60
2016,08,18,00,12,14.50
2016,08,18,00,13,14.50
2016,08,18,00,14,14.50
2016,08,18,00,15,14.40
2016,08,18,00,16,14.40
2016,08,18,00,17,14.40
2016,08,18,00,18,14.30
2016,08,18,00,19,14.30
2016,08,18,00,20,14.20
2016,08,18,00,21,14.20
2016,08,18,00,22,14.20
2016,08,18,00,23,14.20
2016,08,18,00,24,14.20
2016,08,18,00,25,14.20
2016,08,18,00,26,14.20
2016,08,18,00,27,14.10
2016,08,18,00,28,14.10
2016,08,18,00,29,14.10
2016,08,18,00,30,14.10
2016,08,18,00,31,14.10
2016,08,18,00,32,14.00
2016,08,18,00,33,14.00
2016,08,18,00,34,14.00
2016,08,18,00,35,14.00
2016,08,18,00,36,14.00
2016,08,18,00,37,13.90
2016,08,18,00,38,13.90
2016,08,18,00,39,13.90
2016,08,18,00,40,13.90
2016,08,18,00,41,13.90
2016,08,18,00,42,13.90
2016,08,18,00,43,13.90
2016,08,18,00,44,13.90
2016,08,18,00,45,13.80
2016,08,18,00,46,13.80
2016,08,18,00,47,13.80
2016,08,18,00,48,13.80
2016,08,18,00,49,13.80
2016,08,18,00,50,13.80
2016,08,18,00,51,13.80
2016,08,18,00,52,13.80
2016,08,18,00,53,13.80
2016,08,18,00,54,13.80
2016,08,18,00,55,13.70
2016,08,18,00,56,13.70
2016,08,18,00,57,13.70
2016,08,18,00,58,13.70
2016,08,18,00,59,13.70
2016,08,18,01,00,13.70
2016,08,18,01,01,13.70
2016,08,18,01,02,13.70
2016,08,18,01,03,13.70
2016,08,18,01,04,13.70
2016,08,18,01,05,13.70
2016,08,18,01,06,13.70
2016,08,18,01,07,13.70
2016,08,18,01,08,13.70
2016,08,18,01,09,13.70
2016,08,18,01,10,13.70
2016,08,18,01,11,13.70
2016,08,18,01,12,13.70
2016,08,18,01,13,13.70
2016,08,18,01,14,13.70
2016,08,18,01,15,13.70
2016,08,18,01,16,13.70
2016,08,18,01,17,13.70
2016,08,18,01,18,13.70
2016,08,18,01,19,13.70
2016,08,18,01,20,13.70
2016,08,18,01,21,13.70
2016,08,18,01,22,13.70
2016,08,18,01,23,13.70
2016,08,18,01,24,13.70
2016,08,18,01,25,13.70
2016,08,18,01,26,13.70
2016,08,18,01,27,13.70
2016,08,18,01,28,13.70
2016,08,18,01,29,13.70
2016,08,18,01,30,13.70
2016,08,18,01,31,13.70
2016,08,18,01,32,13.70
2016,08,18,01,33,13.70
2016,08,18,01,34,13.70
2016,08,18,01,35,13.70
2016,08,18,01,36,13.70
2016,08,18,01,37,13.70
2016,08,18,01,38,13.70
2016,08,18,01,39,13.70
2016,08,18,01,40,13.70
2016,08,18,01,41,13.70
2016,08,18,01,42,13.70
2016,08,18,01,43,13.70
2016,08,18,01,44,13.70
2016,08,18,01,45,13.70
2016,08,18,01,46,13.70
2016,08,18,01,47,13.70
2016,08,18,01,48,13.70
2016,08,18,01,49,13.70
2016,08,18,01,50,13.70
2016,08,18,01,51,13.70
2016,08,18,01,52,13.70
2016,08,18,01,53,13.70
2016,08,18,01,54,13.70
2016,08,18,01,55,13.70
2016,08,18,01,56,13.70
2016,08,18,01,57,13.70
2016,08,18,01,58,13.70
2016,08,18,01,59,13.70
2016,08,18,02,00,13.70
2016,08,18,02,01,13.70
2016,08,18,02,02,13.70
2016,08,18,02,03,13.70
2016,08,18,02,04,13.70
2016,08,18,02,05,13.70
2016,08,18,02,06,13.70
2016,08,18,02,07,13.70
2016,08,18,02,08,13.60
2016,08,18,02,09,13.60
2016,08,18,02,10,13.60
2016,08,18,02,11,13.60
2016,08,18,02,12,13.60
2016,08,18,02,13,13.60
2016,08,18,02,14,13.60
2016,08,18,02,15,13.60
2016,08,18,02,16,13.60
2016,08,18,02,17,13.60
2016,08,18,02,18,13.60
2016,08,18,02,19,13.60
2016,08,18,02,20,13.60
2016,08,18,02,21,13.60
2016,08,18,02,22,13.60
2016,08,18,02,23,13.60
2016,08,18,02,24,13.60
2016,08,18,02,25,13.60
2016,08,18,02,26,13.60
2016,08,18,02,27,13.60
2016,08,18,02,28,13.60
2016,08,18,02,29,13.70
2016,08,18,02,30,13.70
2016,08,18,02,31,13.70
2016,08,18,02,32,13.60
2016,08,18,02,33,13.60
2016,08,18,02,34,13.60
2016,08,18,02,35,13.60
2016,08,18,02,36,13.60
2016,08,18,02,37,13.50
2016,08,18,02,38,13.50
2016,08,18,02,39,13.50
2016,08,18,02,40,13.50
2016,08,18,02,41,13.50
2016,08,18,02,42,13.50
2016,08,18,02,43,13.50
2016,08,18,02,44,13.50
2016,08,18,02,45,13.50
2016,08,18,02,46,13.50
2016,08,18,02,47,13.50
2016,08,18,02,48,13.50
2016,08,18,02,49,13.50
2016,08,18,02,50,13.50
2016,08,18,02,51,13.40
2016,08,18,02,52,13.40
2016,08,18,02,53,13.40
2016,08,18,02,54,13.40
2016,08,18,02,55,13.40
2016,08,18,02,56,13.40
2016,08,18,02,57,13.40
2016,08,18,02,58,13.40
2016,08,18,02,59,13.40
2016,08,18,03,00,13.30
2016,08,18,03,01,13.30
2016,08,18,03,02,13.30
2016,08,18,03,03,13.30
2016,08,18,03,04,13.30
2016,08,18,03,05,13.30
2016,08,18,03,06,13.30
2016,08,18,03,07,13.30
2016,08,18,03,08,13.30
2016,08,18,03,09,13.30
2016,08,18,03,10,13.30
2016,08,18,03,11,13.30
2016,08,18,03,12,13.30
2016,08,18,03,13,13.30
2016,08,18,03,14,13.30
2016,08,18,03,15,13.30
2016,08,18,03,16,13.30
2016,08,18,03,17,13.30
2016,08,18,03,18,13.30
2016,08,18,03,19,13.30
2016,08,18,03,20,13.30
2016,08,18,03,21,13.30
2016,08,18,03,22,13.20
2016,08,18,03,23,13.20
2016,08,18,03,24,13.20
2016,08,18,03,25,13.20
2016,08,18,03,26,13.20
2016,08,18,03,27,13.20
2016,08,18,03,28,13.20
2016,08,18,03,29,13.20
2016,08,18,03,30,13.20
2016,08,18,03,31,13.20
2016,08,18,03,32,13.20
2016,08,18,03,33,13.10
2016,08,18,03,34,13.10
2016,08,18,03,35,13.10
2016,08,18,03,36,13.10
2016,08,18,03,37,13.10
2016,08,18,03,38,13.10
2016,08,18,03,39,13.10
2016,08,18,03,40,13.10
2016,08,18,03,41,13.10
2016,08,18,03,42,13.10
2016,08,18,03,43,13.10
2016,08,18,03,44,13.10
2016,08,18,03,45,13.10
2016,08,18,03,46,13.10
2016,08,18,03,47,13.10
2016,08,18,03,48,13.10
2016,08,18,03,49,13.10
2016,08,18,03,50,13.10
2016,08,18,03,51,13.10
2016,08,18,03,52,13.10
2016,08,18,03,53,13.10
2016,08,18,03,54,13.10
2016,08,18,03,55,13.10
2016,08,18,03,56,13.10
2016,08,18,03,57,13.10
2016,08,18,03,58,13.10
2016,08,18,03,59,13.10
2016,08,18,04,00,13.10
2016,08,18,04,01,13.10
2016,08,18,04,02,13.10
2016,08,18,04,03,13.10
2016,08,18,04,04,13.10
2016,08,18,04,05,13.10
2016,08,18,04,06,13.10
2016,08,18,04,07,13.10
2016,08,18,04,08,13.00
2016,08,18,04,09,13.00
2016,08,18,04,10,13.00
2016,08,18,04,11,13.00
2016,08,18,04,12,13.00
2016,08,18,04,13,12.90
2016,08,18,04,14,12.90
2016,08,18,04,15,12.90
2016,08,18,04,16,12.90
2016,08,18,04,17,12.80
2016,08,18,04,18,12.80
2016,08,18,04,19,12.80
2016,08,18,04,20,12.80
2016,08,18,04,21,12.80
2016,08,18,04,22,12.80
2016,08,18,04,23,12.80
2016,08,18,04,24,12.80
2016,08,18,04,25,12.80
2016,08,18,04,26,12.80
2016,08,18,04,27,12.80
2016,08,18,04,28,12.80
2016,08,18,04,29,12.80
2016,08,18,04,30,12.80
2016,08,18,04,31,12.90
2016,08,18,04,32,12.90
2016,08,18,04,33,12.90
2016,08,18,04,34,12.90
2016,08,18,04,35,12.90
2016,08,18,04,36,12.90
2016,08,18,04,37,12.90
2016,08,18,04,38,12.90
2016,08,18,04,39,12.90
2016,08,18,04,40,12.90
2016,08,18,04,41,12.90
2016,08,18,04,42,12.90
2016,08,18,04,43,12.90
2016,08,18,04,44,12.90
2016,08,18,04,45,12.90
2016,08,18,04,46,12.90
2016,08,18,04,47,12.90
2016,08,18,04,48,12.90
2016,08,18,04,49,12.90
2016,08,18,04,50,12.90
2016,08,18,04,51,12.90
2016,08,18,04,52,12.90
2016,08,18,04,53,12.80
2016,08,18,04,54,12.80
2016,08,18,04,55,12.80
2016,08,18,04,56,12.80
2016,08,18,04,57,12.80
2016,08,18,04,58,12.80
2016,08,18,04,59,12.80
2016,08,18,05,00,12.80
2016,08,18,05,01,12.80
2016,08,18,05,02,12.80
2016,08,18,05,03,12.80
2016,08,18,05,04,12.80
2016,08,18,05,05,12.80
2016,08,18,05,06,12.80
2016,08,18,05,07,12.80
2016,08,18,05,08,12.80
2016,08,18,05,09,12.80
2016,08,18,05,10,12.80
2016,08,18,05,11,12.80
2016,08,18,05,12,12.80
2016,08,18,05,13,12.90
2016,08,18,05,14,12.90
2016,08,18,05,15,12.90
2016,08,18,05,16,12.90
2016,08,18,05,17,12.90
2016,08,18,05,18,12.80
2016,08,18,05,19,12.80
2016,08,18,05,20,12.80
2016,08,18,05,21,12.80
2016,08,18,05,22,12.80
2016,08,18,05,23,12.80
2016,08,18,05,24,12.80
2016,08,18,05,25,12.80
2016,08,18,05,26,12.80
2016,08,18,05,27,12.80
2016,08,18,05,28,12.70
2016,08,18,05,29,12.70
2016,08,18,05,30,12.70
2016,08,18,05,31,12.70
2016,08,18,05,32,12.70
2016,08,18,05,33,12.70
2016,08,18,05,34,12.70
2016,08,18,05,35,12.70
2016,08,18,05,36,12.70
2016,08,18,05,37,12.70
2016,08,18,05,38,12.70
2016,08,18,05,39,12.70
2016,08,18,05,40,12.70
2016,08,18,05,41,12.70
2016,08,18,05,42,12.70
2016,08,18,05,43,12.80
2016,08,18,05,44,12.80
2016,08,18,05,45,12.80
2016,08,18,05,46,12.80
2016,08,18,05,47,12.80
2016,08,18,05,48,12.80
2016,08,18,05,49,12.80
2016,08,18,05,50,12.70
2016,08,18,05,51,12.70
2016,08,18,05,52,12.70
2016,08,18,05,53,12.70
2016,08,18,05,54,12.70
2016,08,18,05,55,12.70
2016,08,18,05,56,12.70
2016,08,18,05,57,12.70
2016,08,18,05,58,12.70
2016,08,18,05,59,12.70
2016,08,18,06,00,12.70
2016,08,18,06,01,12.70
2016,08,18,06,02,12.70
2016,08,18,06,03,12.70
2016,08,18,06,04,12.70
2016,08,18,06,05,12.60
2016,08,18,06,06,12.60
2016,08,18,06,07,12.60
2016,08,18,06,08,12.60
2016,08,18,06,09,12.60
2016,08,18,06,10,12.60
2016,08,18,06,11,12.60
2016,08,18,06,12,12.60
2016,08,18,06,13,12.50
2016,08,18,06,14,12.50
2016,08,18,06,15,12.50
2016,08,18,06,16,12.50
2016,08,18,06,17,12.50
2016,08,18,06,18,12.50
2016,08,18,06,19,12.50
2016,08,18,06,20,12.50
2016,08,18,06,21,12.50
2016,08,18,06,22,12.50
2016,08,18,06,23,12.50
2016,08,18,06,24,12.50
2016,08,18,06,25,12.50
2016,08,18,06,26,12.50
2016,08,18,06,27,12.50
2016,08,18,06,28,12.50
2016,08,18,06,29,12.50
2016,08,18,06,30,12.40
2016,08,18,06,31,12.40
2016,08,18,06,32,12.30
2016,08,18,06,33,12.30
2016,08,18,06,34,12.30
2016,08,18,06,35,12.30
2016,08,18,06,36,12.40
2016,08,18,06,37,12.40
2016,08,18,06,38,12.40
2016,08,18,06,39,12.40
2016,08,18,06,40,12.40
2016,08,18,06,41,12.50
2016,08,18,06,42,12.50
2016,08,18,06,43,12.50
2016,08,18,06,44,12.50
2016,08,18,06,45,12.50
2016,08,18,06,46,12.50
2016,08,18,06,47,12.60
2016,08,18,06,48,12.60
2016,08,18,06,49,12.60
2016,08,18,06,50,12.60
2016,08,18,06,51,12.60
2016,08,18,06,52,12.70
2016,08,18,06,53,12.70
2016,08,18,06,54,12.70
2016,08,18,06,55,12.80
2016,08,18,06,56,12.80
2016,08,18,06,57,12.80
2016,08,18,06,58,12.80
2016,08,18,06,59,12.80
2016,08,18,07,00,12.80
2016,08,18,07,01,12.80
2016,08,18,07,02,12.90
2016,08,18,07,03,12.90
2016,08,18,07,04,13.00
2016,08,18,07,05,13.00
2016,08,18,07,06,13.10
2016,08,18,07,07,13.10
2016,08,18,07,08,13.20
2016,08,18,07,09,13.30
2016,08,18,07,10,13.30
2016,08,18,07,11,13.30
2016,08,18,07,12,13.40
2016,08,18,07,13,13.40
2016,08,18,07,14,13.40
2016,08,18,07,15,13.50
2016,08,18,07,16,13.50
2016,08,18,07,17,13.50
2016,08,18,07,18,13.60
2016,08,18,07,19,13.70
2016,08,18,07,20,13.70
2016,08,18,07,21,13.80
2016,08,18,07,22,13.90
2016,08,18,07,23,14.00
2016,08,18,07,24,14.10
2016,08,18,07,25,14.20
2016,08,18,07,26,14.20
2016,08,18,07,27,14.20
2016,08,18,07,28,14.30
2016,08,18,07,29,14.40
2016,08,18,07,30,14.50
2016,08,18,07,31,14.50
2016,08,18,07,32,14.60
2016,08,18,07,33,14.60
2016,08,18,07,34,14.70
2016,08,18,07,35,14.80
2016,08,18,07,36,14.90
2016,08,18,07,37,14.90
2016,08,18,07,38,15.00
2016,08,18,07,39,15.00
2016,08,18,07,40,15.10
2016,08,18,07,41,15.10
2016,08,18,07,42,15.20
2016,08,18,07,43,15.20
2016,08,18,07,44,15.30
2016,08,18,07,45,15.30
2016,08,18,07,46,15.40
2016,08,18,07,47,15.40
2016,08,18,07,48,15.50
2016,08,18,07,49,15.60
2016,08,18,07,50,15.80
2016,08,18,07,51,15.90
2016,08,18,07,52,16.10
2016,08,18,07,53,16.20
2016,08,18,07,54,16.30
2016,08,18,07,55,16.50
2016,08,18,07,56,16.70
2016,08,18,07,57,16.80
2016,08,18,07,58,17.00
2016,08,18,07,59,17.20
2016,08,18,08,00,17.30
2016,08,18,08,01,17.40
2016,08,18,08,02,17.50
2016,08,18,08,03,17.60
2016,08,18,08,04,17.70
2016,08,18,08,05,17.90
2016,08,18,08,06,18.00
2016,08,18,08,07,18.20
2016,08,18,08,08,18.30
2016,08,18,08,09,18.40
2016,08,18,08,10,18.40
2016,08,18,08,11,18.40
2016,08,18,08,12,18.50
2016,08,18,08,13,18.50
2016,08,18,08,14,18.50
2016,08,18,08,15,18.50
2016,08,18,08,16,18.50
2016,08,18,08,17,18.50
2016,08,18,08,18,18.50
2016,08,18,08,19,18.60
2016,08,18,08,20,18.60
2016,08,18,08,21,18.60
2016,08,18,08,22,18.70
2016,08,18,08,23,18.70
2016,08,18,08,24,18.80
2016,08,18,08,25,18.90
2016,08,18,08,26,18.90
2016,08,18,08,27,19.00
2016,08,18,08,28,19.10
2016,08,18,08,29,19.20
2016,08,18,08,30,19.30
2016,08,18,08,31,19.50
2016,08,18,08,32,19.60
2016,08,18,08,33,19.70
2016,08,18,08,34,19.80
2016,08,18,08,35,19.90
2016,08,18,08,36,19.90
2016,08,18,08,37,19.90
2016,08,18,08,38,20.10
2016,08,18,08,39,20.10
2016,08,18,08,40,20.20
2016,08,18,08,41,20.20
2016,08,18,08,42,20.30
2016,08,18,08,43,20.40
2016,08,18,08,44,20.40
2016,08,18,08,45,20.50
2016,08,18,08,46,20.50
2016,08,18,08,47,20.60
2016,08,18,08,48,20.60
2016,08,18,08,49,20.70
2016,08,18,08,50,20.80
2016,08,18,08,51,20.80
2016,08,18,08,52,20.90
2016,08,18,08,53,20.90
2016,08,18,08,54,21.00
2016,08,18,08,55,21.10
2016,08,18,08,56,21.10
2016,08,18,08,57,21.20
2016,08,18,08,58,21.30
2016,08,18,08,59,21.30
2016,08,18,09,00,21.30
2016,08,18,09,01,21.40
2016,08,18,09,02,21.40
2016,08,18,09,03,21.40
2016,08,18,09,04,21.40
2016,08,18,09,05,21.40
2016,08,18,09,06,21.50
2016,08,18,09,07,21.60
2016,08,18,09,08,21.60
2016,08,18,09,09,21.60
2016,08,18,09,10,21.60
2016,08,18,09,11,21.60
2016,08,18,09,12,21.60
2016,08,18,09,13,21.60
2016,08,18,09,14,21.60
2016,08,18,09,15,21.60
2016,08,18,09,16,21.70
2016,08,18,09,17,21.70
2016,08,18,09,18,21.70
2016,08,18,09,19,21.70
2016,08,18,09,20,21.70
2016,08,18,09,21,21.80
2016,08,18,09,22,21.90
2016,08,18,09,23,22.00
2016,08,18,09,24,22.10
2016,08,18,09,25,22.20
2016,08,18,09,26,22.40
2016,08,18,09,27,22.50
2016,08,18,09,28,22.70
2016,08,18,09,29,22.80
2016,08,18,09,30,22.90
2016,08,18,09,31,23.00
2016,08,18,09,32,23.10
2016,08,18,09,33,23.20
2016,08,18,09,34,23.30
2016,08,18,09,35,23.30
2016,08,18,09,36,23.30
2016,08,18,09,37,23.40
2016,08,18,09,38,23.40
2016,08,18,09,39,23.50
2016,08,18,09,40,23.60
2016,08,18,09,41,23.60
2016,08,18,09,42,23.60
2016,08,18,09,43,23.70
2016,08,18,09,44,23.70
2016,08,18,09,45,23.70
2016,08,18,09,46,23.70
2016,08,18,09,47,23.70
2016,08,18,09,48,23.80
2016,08,18,09,49,23.80
2016,08,18,09,50,23.80
2016,08,18,09,51,23.90
2016,08,18,09,52,23.90
2016,08,18,09,53,23.90
2016,08,18,09,54,23.90
2016,08,18,09,55,23.90
2016,08,18,09,56,24.10
2016,08,18,09,57,24.10
2016,08,18,09,58,24.20
2016,08,18,09,59,24.20
2016,08,18,10,00,24.20
2016,08,18,10,01,24.20
2016,08,18,10,02,24.30
2016,08,18,10,03,24.40
2016,08,18,10,04,24.50
2016,08,18,10,05,24.50
2016,08,18,10,06,24.60
2016,08,18,10,07,24.70
2016,08,18,10,08,24.80
2016,08,18,10,09,24.90
2016,08,18,10,10,25.00
2016,08,18,10,11,25.10
2016,08,18,10,12,25.00
2016,08,18,10,13,24.90
2016,08,18,10,14,25.00
2016,08,18,10,15,24.90
2016,08,18,10,16,24.90
2016,08,18,10,17,24.80
2016,08,18,10,18,24.80
2016,08,18,10,19,24.90
2016,08,18,10,20,24.90
2016,08,18,10,21,25.00
2016,08,18,10,22,25.00
2016,08,18,10,23,25.10
2016,08,18,10,24,25.20
2016,08,18,10,25,25.10
2016,08,18,10,26,25.10
2016,08,18,10,27,25.20
2016,08,18,10,28,25.20
2016,08,18,10,29,25.30
2016,08,18,10,30,25.40
2016,08,18,10,31,25.40
2016,08,18,10,32,25.40
2016,08,18,10,33,25.30
2016,08,18,10,34,25.20
2016,08,18,10,35,25.10
2016,08,18,10,36,25.00
2016,08,18,10,37,24.90
2016,08,18,10,38,24.90
2016,08,18,10,39,24.80
2016,08,18,10,40,24.90
2016,08,18,10,41,24.90
2016,08,18,10,42,25.00
2016,08,18,10,43,25.00
2016,08,18,10,44,25.00
2016,08,18,10,45,25.00
2016,08,18,10,46,24.90
2016,08,18,10,47,25.00
2016,08,18,10,48,25.00
2016,08,18,10,49,25.10
2016,08,18,10,50,25.10
2016,08,18,10,51,25.10
2016,08,18,10,52,25.00
2016,08,18,10,53,25.10
2016,08,18,10,54,25.10
2016,08,18,10,55,25.00
2016,08,18,10,56,25.00
2016,08,18,10,57,25.00
2016,08,18,10,58,25.00
2016,08,18,10,59,25.00
2016,08,18,11,00,25.00
2016,08,18,11,01,25.10
2016,08,18,11,02,25.10
2016,08,18,11,03,25.20
2016,08,18,11,04,25.30
2016,08,18,11,05,25.30
2016,08,18,11,06,25.30
2016,08,18,11,07,25.40
2016,08,18,11,08,25.50
2016,08,18,11,09,25.60
2016,08,18,11,10,25.70
2016,08,18,11,11,25.90
2016,08,18,11,12,25.90
2016,08,18,11,13,25.90
2016,08,18,11,14,25.90
2016,08,18,11,15,25.90
2016,08,18,11,16,26.00
2016,08,18,11,17,26.00
2016,08,18,11,18,26.10
2016,08,18,11,19,26.20
2016,08,18,11,20,26.30
2016,08,18,11,21,26.30
2016,08,18,11,22,26.30
2016,08,18,11,23,26.40
2016,08,18,11,24,26.50
2016,08,18,11,25,26.60
2016,08,18,11,26,26.60
2016,08,18,11,27,26.70
2016,08,18,11,28,26.70
2016,08,18,11,29,26.80
2016,08,18,11,30,26.80
2016,08,18,11,31,26.80
2016,08,18,11,32,26.80
2016,08,18,11,33,26.90
2016,08,18,11,34,26.90
2016,08,18,11,35,26.90
2016,08,18,11,36,26.90
2016,08,18,11,37,27.00
2016,08,18,11,38,27.10
2016,08,18,11,39,27.10
2016,08,18,11,40,27.00
2016,08,18,11,41,26.80
2016,08,18,11,42,26.70
2016,08,18,11,43,26.70
2016,08,18,11,44,26.80
2016,08,18,11,45,26.80
2016,08,18,11,46,26.80
2016,08,18,11,47,26.80
2016,08,18,11,48,26.70
2016,08,18,11,49,26.60
2016,08,18,11,50,26.60
2016,08,18,11,51,26.60
2016,08,18,11,52,26.50
2016,08,18,11,53,26.40
2016,08,18,11,54,26.30
2016,08,18,11,55,26.30
2016,08,18,11,56,26.30
2016,08,18,11,57,26.30
2016,08,18,11,58,26.30
2016,08,18,11,59,26.30
2016,08,18,12,00,26.30
2016,08,18,12,01,26.30
2016,08,18,12,02,26.30
2016,08,18,12,03,26.40
2016,08,18,12,04,26.50
2016,08,18,12,05,26.70
2016,08,18,12,06,26.80
2016,08,18,12,07,27.00
2016,08,18,12,08,27.20
2016,08,18,12,09,27.30
2016,08,18,12,10,27.40
2016,08,18,12,11,27.60
2016,08,18,12,12,27.70
2016,08,18,12,13,27.80
2016,08,18,12,14,27.90
2016,08,18,12,15,27.90
2016,08,18,12,16,27.90
2016,08,18,12,17,27.90
2016,08,18,12,18,27.90
2016,08,18,12,19,27.90
2016,08,18,12,20,27.90
2016,08,18,12,21,28.00
2016,08,18,12,22,27.90
2016,08,18,12,23,28.00
2016,08,18,12,24,27.90
2016,08,18,12,25,27.90
2016,08,18,12,26,27.90
2016,08,18,12,27,27.90
2016,08,18,12,28,28.00
2016,08,18,12,29,28.10
2016,08,18,12,30,28.20
2016,08,18,12,31,28.40
2016,08,18,12,32,28.40
2016,08,18,12,33,28.40
2016,08,18,12,34,28.40
2016,08,18,12,35,28.40
2016,08,18,12,36,28.30
2016,08,18,12,37,28.20
2016,08,18,12,38,28.30
2016,08,18,12,39,28.30
2016,08,18,12,40,28.40
2016,08,18,12,41,28.40
2016,08,18,12,42,28.40
2016,08,18,12,43,28.40
2016,08,18,12,44,28.30
2016,08,18,12,45,28.30
2016,08,18,12,46,28.20
2016,08,18,12,47,28.30
2016,08,18,12,48,28.40
2016,08,18,12,49,28.50
2016,08,18,12,50,28.60
2016,08,18,12,51,28.70
2016,08,18,12,52,28.60
2016,08,18,12,53,28.50
2016,08,18,12,54,28.40
2016,08,18,12,55,28.40
2016,08,18,12,56,28.50
2016,08,18,12,57,28.60
2016,08,18,12,58,28.70
2016,08,18,12,59,28.80
2016,08,18,13,00,28.80
2016,08,18,13,01,28.90
2016,08,18,13,02,28.90
2016,08,18,13,03,29.00
2016,08,18,13,04,29.10
2016,08,18,13,05,29.30
2016,08,18,13,06,29.30
2016,08,18,13,07,29.40
2016,08,18,13,08,29.50
2016,08,18,13,09,29.60
2016,08,18,13,10,29.70
2016,08,18,13,11,29.80
2016,08,18,13,12,29.90
2016,08,18,13,13,29.90
2016,08,18,13,14,30.00
2016,08,18,13,15,30.10
2016,08,18,13,16,30.10
2016,08,18,13,17,30.20
2016,08,18,13,18,30.30
2016,08,18,13,19,30.40
2016,08,18,13,20,30.40
2016,08,18,13,21,30.40
2016,08,18,13,22,30.30
2016,08,18,13,23,30.30
2016,08,18,13,24,30.30
2016,08,18,13,25,30.30
2016,08,18,13,26,30.30
2016,08,18,13,27,30.40
2016,08,18,13,28,30.40
2016,08,18,13,29,30.30
2016,08,18,13,30,30.30
2016,08,18,13,31,30.30
2016,08,18,13,32,30.20
2016,08,18,13,33,30.20
2016,08,18,13,34,30.20
2016,08,18,13,35,30.20
2016,08,18,13,36,30.30
2016,08,18,13,37,30.50
2016,08,18,13,38,30.60
2016,08,18,13,39,30.70
2016,08,18,13,40,30.80
2016,08,18,13,41,30.90
2016,08,18,13,42,30.90
2016,08,18,13,43,30.90
2016,08,18,13,44,30.90
2016,08,18,13,45,30.80
2016,08,18,13,46,30.70
2016,08,18,13,47,30.70
2016,08,18,13,48,30.70
2016,08,18,13,49,30.70
2016,08,18,13,50,30.70
2016,08,18,13,51,30.60
2016,08,18,13,52,30.40
2016,08,18,13,53,30.40
2016,08,18,13,54,30.40
2016,08,18,13,55,30.40
2016,08,18,13,56,30.40
2016,08,18,13,57,30.50
2016,08,18,13,58,30.60
2016,08,18,13,59,30.70
2016,08,18,14,00,30.80
2016,08,18,14,01,30.80
2016,08,18,14,02,30.80
2016,08,18,14,03,30.90
2016,08,18,14,04,31.00
2016,08,18,14,05,31.10
2016,08,18,14,06,31.20
2016,08,18,14,07,31.30
2016,08,18,14,08,31.30
2016,08,18,14,09,31.20
2016,08,18,14,10,31.10
2016,08,18,14,11,31.10
2016,08,18,14,12,31.00
2016,08,18,14,13,31.00
2016,08,18,14,14,31.00
2016,08,18,14,15,31.00
2016,08,18,14,16,31.10
2016,08,18,14,17,31.20
2016,08,18,14,18,31.20
2016,08,18,14,19,31.20
2016,08,18,14,20,31.30
2016,08,18,14,21,31.30
2016,08,18,14,22,31.40
2016,08,18,14,23,31.30
2016,08,18,14,24,31.30
2016,08,18,14,25,31.30
2016,08,18,14,26,31.40
2016,08,18,14,27,31.50
2016,08,18,14,28,31.50
2016,08,18,14,29,31.50
2016,08,18,14,30,31.60
2016,08,18,14,31,31.70
2016,08,18,14,32,31.70
2016,08,18,14,33,31.80
2016,08,18,14,34,31.70
2016,08,18,14,35,31.60
2016,08,18,14,36,31.70
2016,08,18,14,37,31.70
2016,08,18,14,38,31.80
2016,08,18,14,39,31.80
2016,08,18,14,40,32.00
2016,08,18,14,41,32.10
2016,08,18,14,42,32.10
2016,08,18,14,43,32.10
2016,08,18,14,44,32.20
2016,08,18,14,45,32.10
2016,08,18,14,46,32.10
2016,08,18,14,47,32.10
2016,08,18,14,48,32.10
2016,08,18,14,49,32.10
2016,08,18,14,50,31.90
2016,08,18,14,51,31.80
2016,08,18,14,52,31.80
2016,08,18,14,53,31.80
2016,08,18,14,54,31.80
2016,08,18,14,55,31.80
2016,08,18,14,56,31.80
2016,08,18,14,57,31.80
2016,08,18,14,58,31.80
2016,08,18,14,59,31.80
2016,08,18,15,00,31.80
2016,08,18,15,01,31.70
2016,08,18,15,02,31.70
2016,08,18,15,03,31.80
2016,08,18,15,04,31.80
2016,08,18,15,05,31.80
2016,08,18,15,06,31.80
2016,08,18,15,07,31.70
2016,08,18,15,08,31.70
2016,08,18,15,09,31.70
2016,08,18,15,10,31.80
2016,08,18,15,11,31.80
2016,08,18,15,12,31.80
2016,08,18,15,13,31.90
2016,08,18,15,14,31.90
2016,08,18,15,15,31.90
2016,08,18,15,16,31.90
2016,08,18,15,17,31.90
2016,08,18,15,18,31.90
2016,08,18,15,19,31.90
2016,08,18,15,20,31.90
2016,08,18,15,21,31.90
2016,08,18,15,22,31.90
2016,08,18,15,23,32.00
2016,08,18,15,24,32.00
2016,08,18,15,25,32.10
2016,08,18,15,26,32.00
2016,08,18,15,27,32.10
2016,08,18,15,28,32.10
2016,08,18,15,29,32.10
2016,08,18,15,30,32.00
2016,08,18,15,31,31.90
2016,08,18,15,32,31.90
2016,08,18,15,33,31.80
2016,08,18,15,34,31.80
2016,08,18,15,35,31.90
2016,08,18,15,36,31.90
2016,08,18,15,37,31.90
2016,08,18,15,38,31.90
2016,08,18,15,39,31.80
2016,08,18,15,40,31.80
2016,08,18,15,41,31.80
2016,08,18,15,42,31.70
2016,08,18,15,43,31.70
2016,08,18,15,44,31.70
2016,08,18,15,45,31.70
2016,08,18,15,46,31.80
2016,08,18,15,47,31.80
2016,08,18,15,48,31.90
2016,08,18,15,49,31.90
2016,08,18,15,50,31.90
2016,08,18,15,51,31.90
2016,08,18,15,52,31.90
2016,08,18,15,53,31.90
2016,08,18,15,54,31.80
2016,08,18,15,55,31.80
2016,08,18,15,56,31.80
2016,08,18,15,57,31.80
2016,08,18,15,58,31.80
2016,08,18,15,59,31.90
2016,08,18,16,00,32.00
2016,08,18,16,01,32.10
2016,08,18,16,02,32.10
2016,08,18,16,03,32.20
2016,08,18,16,04,32.20
2016,08,18,16,05,32.20
2016,08,18,16,06,32.20
2016,08,18,16,07,32.20
2016,08,18,16,08,32.30
2016,08,18,16,09,32.30
2016,08,18,16,10,32.30
2016,08,18,16,11,32.30
2016,08,18,16,12,32.30
2016,08,18,16,13,32.30
2016,08,18,16,14,32.20
2016,08,18,16,15,32.20
2016,08,18,16,16,32.20
2016,08,18,16,17,32.20
2016,08,18,16,18,32.30
2016,08,18,16,19,32.30
2016,08,18,16,20,32.40
2016,08,18,16,21,32.40
2016,08,18,16,22,32.40
2016,08,18,16,23,32.50
2016,08,18,16,24,32.50
2016,08,18,16,25,32.50
2016,08,18,16,26,32.50
2016,08,18,16,27,32.40
2016,08,18,16,28,32.20
2016,08,18,16,29,32.20
2016,08,18,16,30,32.10
2016,08,18,16,31,31.90
2016,08,18,16,32,31.80
2016,08,18,16,33,31.70
2016,08,18,16,34,31.70
2016,08,18,16,35,31.70
2016,08,18,16,36,31.60
2016,08,18,16,37,31.60
2016,08,18,16,38,31.60
2016,08,18,16,39,31.70
2016,08,18,16,40,31.70
2016,08,18,16,41,31.70
2016,08,18,16,42,31.70
2016,08,18,16,43,31.70
2016,08,18,16,44,31.70
2016,08,18,16,45,31.80
2016,08,18,16,46,31.90
2016,08,18,16,47,31.90
2016,08,18,16,48,31.90
2016,08,18,16,49,31.90
2016,08,18,16,50,32.10
2016,08,18,16,51,32.10
2016,08,18,16,52,32.10
2016,08,18,16,53,32.10
2016,08,18,16,54,32.00
2016,08,18,16,55,31.90
2016,08,18,16,56,31.80
2016,08,18,16,57,31.70
2016,08,18,16,58,31.60
2016,08,18,16,59,31.50
2016,08,18,17,00,31.40
2016,08,18,17,01,31.40
2016,08,18,17,02,31.30
2016,08,18,17,03,31.20
2016,08,18,17,04,31.20
2016,08,18,17,05,31.30
2016,08,18,17,06,31.30
2016,08,18,17,07,31.30
2016,08,18,17,08,31.40
2016,08,18,17,09,31.40
2016,08,18,17,10,31.50
2016,08,18,17,11,31.60
2016,08,18,17,12,31.60
2016,08,18,17,13,31.60
2016,08,18,17,14,31.60
2016,08,18,17,15,31.50
2016,08,18,17,16,31.60
2016,08,18,17,17,31.60
2016,08,18,17,18,31.60
2016,08,18,17,19,31.60